Location: Hepcat Sky Observatory
(29.9800°N, 95.6500°W)
Time: 04:25:09
(UTC-05:00)

Cosmos 2366 rocket - Visible Passes

Search period start: 25 May 2018 00:00
Search period end: 04 June 2018 00:00
Orbit: 956 x 996 km, 82.9° (Epoch: 24 May)

Date Brightness Start Highest point End Pass type
(mag) Time Alt. Az. Time Alt. Az. Time Alt. Az.
25 May 6.6 04:04:23 10° NE 04:07:47 15° ENE 04:11:09 10° ESE visible
25 May 4.1 05:47:25 10° NNW 05:53:33 59° W 05:59:34 10° S visible
26 May 5.8 04:28:19 10° NNE 04:33:42 30° ENE 04:39:01 10° SE visible
27 May 4.5 04:53:18 10° N 04:59:26 60° E 05:05:30 10° SSE visible
28 May 6.7 03:36:43 10° NE 03:39:08 12° ENE 03:41:32 10° E visible
28 May 3.9 05:18:50 10° N 05:25:01 70° W 05:31:07 10° S visible
29 May 5.9 04:00:03 10° NNE 04:05:05 25° ENE 04:10:04 10° SE visible
29 May 4.6 05:44:54 10° NNW 05:50:26 35° W 05:55:55 10° SSW visible
30 May 4.8 04:24:51 10° N 04:30:52 50° E 04:36:48 10° SSE visible
31 May 3.9 04:50:16 10° N 04:56:28 83° W 05:02:37 10° S visible
01 Jun 6.1 03:31:50 10° NNE 03:36:28 22° ENE 03:41:02 10° SE visible
01 Jun 4.4 05:16:11 10° NNW 05:21:56 41° W 05:27:38 10° SSW visible
02 Jun 5.0 03:56:26 10° N 04:02:17 42° E 04:08:03 10° SSE visible
02 Jun 5.2 05:42:50 10° NW 05:47:14 21° W 05:51:35 10° SW visible
03 Jun 3.9 04:21:43 10° N 04:27:56 84° E 04:32:55 16° S visible
